DLH65 DNAA-DNPO

Flight info

Callsign DLH65
Flight time N/A
Altitude 28000
Route IKVAD1Q IKVAD DCT IVBUV UV456 BORMO BORMO1R
Aircraft A339/H-SADE1E2E3GHIJ3J5M1P2RWXY/LB2D1

Departure

Time 2026-05-06 18:16
Airport Nnamdi Azikiwe International Airport (DNAA)

Arrival

Time N/A
Airport Port Harcourt International Airport (DNPO)
Time Latitude Longitude Altitude Speed Heading
2026-05-06 17:50 9.01037 7.27034 1140 ft 0 kts 34°
2026-05-06 18:12 9.01061 7.27050 1140 ft 9 kts 32°
2026-05-06 18:12 9.01149 7.27053 1140 ft 16 kts 331°
2026-05-06 18:12 9.01224 7.27053 1137 ft 11 kts 33°
2026-05-06 18:12 9.01313 7.27128 1136 ft 23 kts 40°
2026-05-06 18:13 9.01447 7.27208 1134 ft 21 kts 359°
2026-05-06 18:13 9.01575 7.27163 1133 ft 18 kts 14°
2026-05-06 18:13 9.01679 7.27229 1133 ft 17 kts 35°
2026-05-06 18:13 9.01780 7.27301 1132 ft 17 kts 34°
2026-05-06 18:14 9.01882 7.27360 1132 ft 16 kts
2026-05-06 18:14 9.01962 7.27288 1130 ft 16 kts 294°
2026-05-06 18:14 9.01939 7.27211 1131 ft 10 kts 214°
2026-05-06 18:14 9.01881 7.27166 1130 ft 10 kts 214°
2026-05-06 18:15 9.01868 7.27157 1129 ft 0 kts 215°
2026-05-06 18:15 9.01794 7.27104 1128 ft 26 kts 215°
2026-05-06 18:15 9.01531 7.26919 1128 ft 80 kts 215°
2026-05-06 18:16 9.00876 7.26457 1130 ft 147 kts 215°
2026-05-06 18:16 8.99889 7.25757 1300 ft 188 kts 214°
2026-05-06 18:16 8.98848 7.25010 2046 ft 188 kts 217°
2026-05-06 18:16 8.97811 7.24288 2955 ft 179 kts 204°
2026-05-06 18:17 8.96583 7.24064 3503 ft 191 kts 180°
2026-05-06 18:17 8.95239 7.24059 3923 ft 200 kts 179°
2026-05-06 18:17 8.93787 7.24027 4230 ft 218 kts 181°
2026-05-06 18:17 8.92213 7.23969 4576 ft 236 kts 181°
2026-05-06 18:18 8.90513 7.23895 4955 ft 254 kts 181°
2026-05-06 18:18 8.88674 7.23810 5336 ft 272 kts 181°
2026-05-06 18:18 8.86737 7.23717 5778 ft 286 kts 181°
2026-05-06 18:18 8.85408 7.23652 6210 ft 290 kts 181°